Location: Middlebury College Observatory
(44.0123°N, 73.1804°W)
Time: 04:14:17
(UTC-04:00)

OTV 5 (USA 277) - Visible Passes

Search period start: 23 June 2018 00:00
Search period end: 03 July 2018 00:00
Orbit: 313 x 320 km, 54.5° (Epoch: 21 June)

Date Brightness Start Highest point End Pass type
(mag) Time Alt. Az. Time Alt. Az. Time Alt. Az.
23 Jun ? 00:00:21 10° NNW 00:01:48 13° NNE 00:03:16 10° NE visible
23 Jun ? 01:33:53 10° NW 01:34:38 17° NW 01:34:38 17° NW visible
24 Jun ? 00:14:22 10° NNW 00:16:31 20° NNE 00:16:52 20° NE visible
24 Jun ? 21:20:19 10° NNW 21:20:53 10° N 21:21:27 10° N visible
24 Jun ? 22:55:10 10° N 22:56:11 11° NNE 22:57:12 10° NE visible
25 Jun ? 00:28:31 10° NW 00:30:05 26° NNW 00:30:05 26° NNW visible
25 Jun ? 23:09:07 10° NNW 23:10:56 16° NNE 23:12:34 11° ENE visible
26 Jun ? 00:42:50 10° NW 00:43:24 15° NW 00:43:24 15° NW visible
26 Jun ? 21:50:05 10° N 21:50:32 10° N 21:51:00 10° NNE visible
26 Jun ? 23:23:12 10° NNW 23:25:35 26° NNE 23:25:57 25° NE visible
27 Jun ? 22:03:54 10° NNW 22:05:20 13° NNE 22:06:45 10° NE visible
27 Jun ? 23:37:25 10° NW 23:39:24 40° NNW 23:39:24 40° NNW visible
28 Jun ? 22:17:56 10° NNW 22:20:02 20° NNE 22:22:03 10° ENE visible
28 Jun ? 23:51:52 10° WNW 23:52:54 20° WNW 23:52:54 20° WNW visible
29 Jun ? 22:32:04 10° NW 22:34:38 37° NNE 22:35:36 26° E visible
30 Jun ? 22:46:22 10° NW 22:49:05 83° SW 22:49:12 78° SSE visible
01 Jul ? 21:26:45 10° NNW 21:29:06 26° NNE 21:31:28 10° E visible
01 Jul ? 23:01:01 10° WNW 23:02:51 26° WSW 23:02:51 26° WSW visible
02 Jul ? 21:40:57 10° NW 21:43:39 58° NE 21:45:42 15° ESE visible
